Weather Roundup
Issued by NWS Springfield, MO

Home | Current Version | Previous Version | Text Only | Print | Product List | Glossary On
Versions: 1 2 3 4 5 6 7 8 9 10 11 12 13 14 15 16 17 18 19 20 21 22 23 24 25 26 27 28 29 30 31 32 33 34 35 36 37 38 39 40 41 42 43 44 45 46 47 48 49 50
000
NZUS99 KSGF 271757
HRRSGF

HOURLY WEATHER
NATIONAL WEATHER SERVICE SPRINGFIELD MO
100 PM CDT THU JUL 27 2017

......SGF CWA......

CITY           SKY/WX    TMP DP  RH WIND       PRES   REMARKS
SPRINGFIELD    CLOUDY    80  74  81 SW14      29.98F
6HR MIN TEMP:  73; 6HR MAX TEMP:  80; 6HR PCP:  0.88;

JOPLIN         CLOUDY    84  77  79 S8        29.97F HX  94
6HR MIN TEMP:  77; 6HR MAX TEMP:  84; 6HR PCP:  0.11;

WEST PLAINS    CLOUDY    78  73  84 VRB5      30.02F
6HR MIN TEMP:  74; 6HR MAX TEMP:  78; 6HR PCP:  0.16;

ROLLA          CLOUDY    77  74  90 SW8       29.99F
6HR MIN TEMP:  72; 6HR MAX TEMP:  77; 6HR PCP:  0.18;

BRANSON        CLOUDY    77  75  94 CALM      30.01F

......SURROUNDING SGF CWA......

CITY           SKY/WX    TMP DP  RH WIND       PRES   REMARKS
CHANUTE        MOSUNNY   88  73  61 VRB6      29.96R HX  95
PARSONS        MOSUNNY   88  73  61 SW8       29.96F HX  95
COFFEYVILLE    CLOUDY    86  75  69 S10       29.94F HX  95
EMPORIA        CLOUDY    83  73  72 N12       29.98S
HARRISON AR    CLOUDY    80  75  84 VRB5      30.02F

......KANSAS AND MISSOURI......

CITY           SKY/WX    TMP DP  RH WIND       PRES   REMARKS
KANSAS CTY INT CLOUDY    82  74  76 NE6       29.98S
SEDALIA        CLOUDY    79  76  90 SW9       29.97F
ST JOSEPH      CLOUDY    84  75  74 N9        29.98F HX  92
ST LOUIS       CLOUDY    82  73  74 W13       29.95F
WICHITA        CLOUDY    84  75  74 N15       29.97S HX  92
TOPEKA         CLOUDY    81  76  84 N7        29.98F
OLATHE         CLOUDY    80  75  84 N7        29.98S

......TENNESSEE......

CITY           SKY/WX    TMP DP  RH WIND       PRES   REMARKS
MEMPHIS        NOT AVBL
NASHVILLE      PTSUNNY   91  71  51 W9        30.00F HX  97

......ARKANSAS.......

CITY           SKY/WX    TMP DP  RH WIND       PRES   REMARKS
FAYETTEVILLE   CLOUDY    86  75  69 S3        30.01F HX  95
FT SMITH       CLOUDY    91  74  57 VRB3      29.97F HX 100
LITTLE ROCK    CLOUDY    91  75  59 W8        30.00F HX 101

......OKLAHOMA.......

CITY           SKY/WX    TMP DP  RH WIND       PRES   REMARKS
TULSA          CLOUDY    84  76  76 S8        29.95F HX  93
PONCA CITY     PTSUNNY   83  70  64 S8        29.96F
MCALESTER      CLOUDY    92  73  53 SW12      29.98F HX 100
OKLAHOMA CITY  CLOUDY    92  66  42 NW5       29.98F HX  94

......IOWA............

CITY           SKY/WX    TMP DP  RH WIND       PRES   REMARKS
DES MOINES     NOT AVBL
QUAD CITIES    PTSUNNY   84  70  62 NE8       29.95F

......ILLINOIS........

CITY           SKY/WX    TMP DP  RH WIND       PRES   REMARKS
QUINCY         CLOUDY    80  74  81 NE9       29.94S
CHICAGO        PTSUNNY   80  67  64 NE15      29.95S



USA.gov is the U.S. government's official web portal to all federal, state and local government web resources and services.